STARLINK-32699, 62482

Orbit data source: Space-Track

STARLINK-32699, 62482 is a payload satellite owned by SpaceX/Seattle (US) in LEO that was launched on Tue, 31 Dec 2024 UTC via an FALCON 9 launch vehicle from the Air Force Eastern Test Range (AFETR). Payload-class satellites include a variety of spacecraft equipped with specific instruments for various scientific and technological missions. These include communications satellites like Starlink; space stations such as the ISS; scientific satellites like the Hubble; Earth observation satellites from companies like Planet Labs, Umbra, and HawkEye 360; GPS; miniature CubeSats for education and research; and military/defense satellites.

Loading next visibility...
Identifier
62482, 2024-254W
Orbit
LEO
Country
Flag of USUS
Related business
Manufacturer
SpaceX/Seattle
Mission
Operational Commercial Communications
Bus & Motor
STARLINK V2M, Unknown motor
Mass
730 kg wet, ~700 kg dry
Launch date (UTC)
2024-12-31 (1 year ago)
Launch vehicle
FALCON 9
Launch site
Air Force Eastern Test Range (AFETR)
Object type
Payload
Rocket body
Debris
Shape & HBR
Box + 2 Pan, 17.7 m
Radar Cross Section
33.884 m², Large (>1 m²)

Expand to show TLE details & history
Last TLE update: 13 hours ago

TLE from 13 hours ago
0 STARLINK-32699
1 62482U 24254W   26171.33174407  .00010775  00000-0  40038-3 0  9993
2 62482  42.9992 159.9127 0001216 273.4192  86.6520 15.27589227 83164
Epoch: 2026-06-20T07:57Z
TLE epoch observation values (Epoch: 2026-06-20T07:57:42.687Z)
Latitude
-0.00006°
Longitude
131.93688°
Altitude
482.748 km
Speed
7.626 km/s
True Right ascension
10h 39m 39s
True Declination
0° 00' 00"
Sunlit
Object was in daylight at epoch
Visualization orbit readout
Latitude
Unknown
Longitude
Unknown
Altitude
Unknown
Speed
Unknown
Apparent Right ascension
Unknown
Apparent Declination
Unknown
Sunlit
N/A
Visualization observer readout
Local Sidereal Time
07:24:25
Azimuth
Unknown
Elevation
Unknown
Doppler factor
Unknown
Orbital elements
Apogee altitude
485.801 km
Perigee altitude
484.132 km
Semi-major axis
6,863.104 km
Eccentricity
0.00012
Inclination
42.9992°
RAAN
159.9127°
Arg. of periapsis
273.4192°
True anomaly
86.66591°
Mean anomaly
86.652°
Eccentric anomaly
86.65896°
Mean motion
3.81735 °/min
Orbital period
94.31 mins
BSTAR
0.00040038
Loading maneuver chart data...
Computing Atmospheric mass density...
Loading historical data...
Loading historical data...
Loading historical data...
Loading historical data...
Loading historical data...
Loading historical data...
Loading historical data...

Documentation

Showing up to 5 results
|